This is the latest recevied weather packets stored in our database for station/object KD9IXX-13. If no packets are shown the sender has not sent any weather packets the latest 10 day(s).
| Time | Temp. | Humidity | Pressure | Rain* | Wind** | Luminosity | Snow |
|---|---|---|---|---|---|---|---|
| 1777585807 | 10° C | 85% | 1016.4 hPa | 1.02 mm | - | 18 W/m² | - |
| 1777585502 | 10° C | 82% | 1016.1 hPa | 0 mm | - | 16 W/m² | - |
| 1777585202 | 10° C | 81% | 1016.1 hPa | 0 mm | - | 19 W/m² | - |
| 1777584902 | 10.56° C | 79% | 1016 hPa | 0 mm | - | 16 W/m² | - |
| 1777584602 | 11.11° C | 75% | 1015.9 hPa | 0 mm | - | 19 W/m² | - |
| 1777584302 | 11.67° C | 72% | 1015.7 hPa | 0 mm | - | 54 W/m² | - |
| 1777584002 | 11.67° C | 70% | 1015.8 hPa | 0 mm | - | 34 W/m² | - |
| 1777583702 | 12.22° C | 69% | 1015.9 hPa | 0 mm | - | 57 W/m² | - |
| 1777583402 | 12.22° C | 66% | 1016 hPa | 0 mm | - | 110 W/m² | - |
| 1777583103 | 11.67° C | 66% | 1015.8 hPa | 0 mm | - | 104 W/m² | - |
| 1777582802 | 12.78° C | 65% | 1016 hPa | 0 mm | - | 66 W/m² | - |
| 1777582502 | 13.33° C | 59% | 1015.7 hPa | 0 mm | - | 108 W/m² | - |
| 1777582202 | 13.33° C | 58% | 1015.9 hPa | 0 mm | - | 143 W/m² | - |
| 1777581902 | 13.33° C | 55% | 1016 hPa | 0 mm | - | 109 W/m² | - |
| 1777581602 | 13.33° C | 53% | 1015.9 hPa | 0 mm | - | 92 W/m² | - |
| 1777581302 | 13.33° C | 53% | 1015.9 hPa | 0 mm | - | 126 W/m² | - |
| 1777581003 | 13.89° C | 51% | 1016 hPa | 0 mm | - | 131 W/m² | - |
| 1777580702 | 13.89° C | 51% | 1015.7 hPa | 0 mm | - | 150 W/m² | - |
| 1777580402 | 13.89° C | 50% | 1016.2 hPa | 0 mm | - | 174 W/m² | - |
| 1777580102 | 14.44° C | 49% | 1015.8 hPa | 0 mm | - | 166 W/m² | - |
| 1777579802 | 13.89° C | 48% | 1015.9 hPa | 0 mm | - | 124 W/m² | - |
| 1777579502 | 13.89° C | 49% | 1016 hPa | 0 mm | - | 119 W/m² | - |
| 1777579202 | 13.89° C | 48% | 1016 hPa | 0 mm | - | 155 W/m² | - |
| 1777578902 | 14.44° C | 49% | 1016 hPa | 0 mm | - | 170 W/m² | - |
| 1777578602 | 14.44° C | 45% | 1016.1 hPa | 0 mm | - | 147 W/m² | - |
* Rain latest hour (hover to see other rain measurements)
** Current wind speed in m/s (hover to see current wind gust speed)